Back to catalog

EDDA-1 300E

AliveCommunicationsSSO
NORAD 69017·PAYLOAD·🇺🇸 United States

Launched May 3, 2026 from Vandenberg Space Force Base

Loading…

Next Passes (next 24 hours)

TLE

FreshSource: CelesTrak SupGP

Epoch: Sep 14, 2026, 11:54 UTC

1 69017C 26100S   26257.49608796  .00026467  00000+0  10570-2 0  2579
2 69017  97.3490 153.9343 0003217 119.9171 168.7418 15.25184407    10

Track EDDA-1 300E in real time with AllMySat

Download on the App Store